Showing default

MOLNIYA 2-10, 7376

Orbit data source: Space-Track

MOLNIYA 2-10, 7376 is a payload satellite owned by GUKOS RVSN (CIS) in HEO that was launched on Tue, 23 Jul 1974 UTC via an MOLNIYA 8K78M launch vehicle from the Plesetsk Missile And Space Complex (PKMTR). Payload-class satellites include a variety of spacecraft equipped with specific instruments for various scientific and technological missions. These include communications satellites like Starlink; space stations such as the ISS; scientific satellites like the Hubble; Earth observation satellites from companies like Planet Labs, Umbra, and HawkEye 360; GPS; miniature CubeSats for education and research; and military/defense satellites.

Loading next visibility...
Identifier
7376, 1974-056A
Orbit
HEO
Country
Flag of CISCIS
Related business
Manufacturer
OKB-10
Mission
Spacecraft
Bus & Motor
MOLNIYA-2, Unknown motor
Mass
~1,650 kg wet, ~1,620 kg dry
Launch date (UTC)
1974-07-23 (51 years ago)
Launch vehicle
MOLNIYA 8K78M
Launch site
Plesetsk Missile And Space Complex (PKMTR)
Object type
Payload
Rocket body
Debris
Shape & HBR
Unknown
Radar Cross Section
Large (>1 m²)

Expand to show TLE details & history
Last TLE update: 2 weeks ago

TLE from 2 weeks ago
0 MOLNIYA 2-10
1 07376U 74056A   25298.00170760 -.00001303  00000-0  00000-0 0  9990
2 07376  65.4392 324.5216 6802290 272.7600  17.4576  2.00949414375006
Epoch: 2025-10-25T00:02Z
TLE epoch observation values (Epoch: 2025-10-25T00:02:27.536Z)
Latitude
-0.00017°
Longitude
-69.67973°
Altitude
7,437.682 km
Speed
6.533 km/s
True Right ascension
21h 38m 17s
True Declination
0° 00' 01"
Sunlit
Object was in daylight at epoch
Visualization orbit readout
Latitude
Unknown
Longitude
Unknown
Altitude
Unknown
Speed
Unknown
Apparent Right ascension
Unknown
Apparent Declination
Unknown
Sunlit
N/A
Visualization observer readout
Local Sidereal Time
13:27:09
Azimuth
Unknown
Elevation
Unknown
Doppler factor
Unknown
Orbital elements
Apogee altitude
38,190.512 km
Perigee altitude
2,103.898 km
Semi-major axis
26,525.342 km
Eccentricity
0.68023
Inclination
65.4392°
RAAN
324.5216°
Arg. of periapsis
272.76°
True anomaly
87.07652°
Mean anomaly
17.4576°
Eccentric anomaly
45.03189°
Mean motion
0.5024 °/min
Orbital period
716.56 mins
BSTAR
0
Loading maneuver chart data...
Computing Atmospheric mass density...
Loading historical data...
Loading historical data...
Loading historical data...
Loading historical data...
Loading historical data...
Loading historical data...
Loading historical data...
Other satellites on launch #56 in the year 1974 (1974-07-23 UTC)

Documentation

Showing up to 5 results
|